星链-32093 (STARLINK-32093 )

导读 | 星芒AI

STARLINK-32093 是 SpaceX Starlink 项目中的一颗低轨通信卫星,属于其第二代卫星互联网星座的一部分。该卫星于2023年发射,旨在为全球用户提供高速、低延迟的互联网服务。它运行在约550公里高度的近地轨道,配备先进通信设备,支持宽带数据传输。Starlink 卫星群致力于改善偏远地区网络覆盖,推动全球互联网普及。STARLINK-32093 在提升网络连接性和可靠性方面发挥着重要作用。

基本信息
目录编号:
59701
目录名称:
STARLINK-32093
国际标识:
2024-086V
轨道中心:
EARTH
卫星名称:
星链-32093
卫星全名:
星链-32093 (STARLINK-32093 )
卫星状态:
在轨 (已飞行591 天)
发射日期:
2024-05-08 UTC
国别 :
美国 (US)
星等 :
--
轨道信息
数据来源 国际轨道数据
星历时间: 2025-12-20T03:15:36+0800
11小时前
查看轨道信息
半长轴: 6861.231km
偏心率: 0.0001258
轨道倾角: 43.001°
近地点辐角 255.882°
升交点赤经 151.122°
平近点角 104.189°
近地点: 482.23km
远地点: 483.958km
周期: 94.268分钟
每日圈数: 15.275652
详细信息
固有亮度:
5
最大亮度:
1.5
卫星平台:
Starlink v2.0 mini
覆盖范围:
全球
运营商:
太空探索技术公司
运营商所在国:
美国
制造商(研发单位):
太空探索技术公司
制造商所在国:
美国
使用方式:
暂无
卫星简介
星链(Starlink)计划是由太空探索技术公司(SpaceX)提出的一个巨型低轨卫星互联网星座项目,计划在2019年至2024年间在太空搭建由约1.2万颗卫星组成的“星链”网络,其中1584颗将部署在地球上空550千米处的近地轨道,并从2020年开始工作。该卫星仍在工作。
2D轨道图
3D轨道图
轨道高度分析图
轨道倾角分析图
轨道综合分析图
查看轨道综合分析图